Location: Newark
(40.4667°N, 5.6000°W)
Time: 21:10:43
(UTC+00:00)

Explorer 11/Cluster Stage 4 - Visible Passes

Search period start: 19 November 2019 00:00
Search period end: 29 November 2019 00:00
Orbit: 467 x 1259 km, 28.8° (Epoch: 19 November)

Date Brightness Start Highest point End Pass type
(mag) Time Alt. Az. Time Alt. Az. Time Alt. Az.
19 Nov 8.8 19:50:55 10° SSW 19:52:20 15° SSW 19:52:20 15° SSW visible
20 Nov 8.6 19:40:12 10° SSW 19:42:16 18° S 19:42:16 18° S visible
21 Nov 8.3 19:29:32 10° SSW 19:32:11 19° S 19:32:11 19° S visible
22 Nov 8.2 19:18:55 10° SW 19:22:06 20° S 19:22:06 20° S visible
23 Nov 8.1 19:08:20 10° SW 19:11:50 20° SSE 19:12:00 20° SSE visible
24 Nov 8.0 18:57:46 10° SW 19:01:07 20° S 19:01:55 19° SSE visible
25 Nov 8.0 18:47:15 10° SW 18:50:25 19° S 18:51:51 17° SSE visible
26 Nov 8.0 18:36:45 10° SW 18:39:44 19° S 18:41:49 14° SE visible
27 Nov 8.1 18:26:17 10° SW 18:29:03 18° S 18:31:49 11° SE visible
28 Nov 8.1 18:15:52 10° SW 18:18:24 16° S 18:21:12 10° SE visible
